Torna al catalogo

THORAD AGENA D DEB

AttivoLEO
NORAD 4311·DEBRIS·🇺🇸 United States

Lanciato Sep 30, 1969 da Vandenberg Space Force Base

Loading…

Prossimi Passaggi (prossime 24 ore)

TLE

AggiornatoSource: Space-Track

Epoca: Sep 14, 2026, 11:00 UTC

1 04311U 69082DR  26257.45896514  .00002305  00000-0  32703-3 0  9996
2 04311  70.3307 182.9714 0050504 230.5075 129.1605 14.77449337990639

Traccia THORAD AGENA D DEB in tempo reale con AllMySat

Download on the App Store